SB KEPS @ AMSAT $ORB07327.N 2Line Orbital Elements 07327.AMSAT
HR AMSAT ORBITAL ELEMENTS FOR AMATEUR SATELLITES IN NASA FORMAT FROM WA5QGD FORT WORTH,TX November 23, 2007 Send Subscribe/unsubscribe to KEPS at http://www.amsat.org/mailman/listinfo/keps BID: ORB07327.N
DECODE 2-LINE ELSETS WITH THE FOLLOWING KEY: 1 AAAAAU 00 0 0 BBBBB.BBBBBBBB .CCCCCCCC 00000-0 00000-0 0 DDDZ 2 AAAAA EEE.EEEE FFF.FFFF GGGGGGG HHH.HHHH III.IIII JJ.JJJJJJJJKKKKKZ KEY: A-CATALOGNUM B-EPOCHTIME C-DECAY D-ELSETNUM E-INCLINATION F-RAAN G-ECCENTRICITY H-ARGPERIGEE I-MNANOM J-MNMOTION K-ORBITNUM Z-CHECKSUM
TO ALL RADIO AMATEURS BT
AO-07 1 07530U 74089B 07326.71696485 -.00000028 00000-0 10000-3 0 00342 2 07530 101.4962 359.9472 0011841 307.5200 052.4785 12.53572815510984 AO-10 1 14129U 83058B 07326.87867449 .00000169 00000-0 10000-3 0 04481 2 14129 025.9876 244.6386 6049896 075.3993 341.2086 02.05870066183838 UO-11 1 14781U 84021B 07326.64245392 .00000178 00000-0 31108-4 0 05280 2 14781 098.1781 352.3054 0009705 028.0241 332.1532 14.79595255273167 RS-15 1 23439U 94085A 07326.91844360 -.00000039 00000-0 10000-3 0 01045 2 23439 064.8131 110.2219 0154778 161.9698 198.6799 11.27552949531591 FO-29 1 24278U 96046B 07327.86840811 .00000009 00000-0 44668-4 0 6441 2 24278 098.5738 266.2190 0351245 029.7426 332.3179 13.52934228556497 SO-33 1 25509U 98061B 07327.56833611 .00000099 00000-0 91828-5 0 708 2 25509 031.4313 044.5942 0354868 020.7999 340.6672 14.28186515474055 AO-40 1 26609U 00072B 07327.58552274 -.00000056 00000-0 10000-3 0 9726 2 26609 007.0232 109.8145 7933750 025.9532 357.9399 01.25583264 32441 VO-52 1 28650U 05017B 07327.85797822 .00000178 00000-0 29251-4 0 7864 2 28650 097.8168 034.8592 0028352 093.3830 267.0589 14.81385956138053 PO-63 1 29712U 07001D 07327.75386335 .00000765 00000-0 10812-3 0 9395 2 29712 097.9046 024.5594 0013633 336.3986 023.6596 14.79909265 46936 AO-16 1 20439U 90005D 07326.51776785 .00000005 00000-0 16903-4 0 01862 2 20439 098.2101 312.4599 0011999 075.6782 284.5735 14.31776078931201 LO-19 1 20442U 90005G 07326.87911137 .00000049 00000-0 33278-4 0 1094 2 20442 098.1878 321.8830 0012926 073.3832 286.8793 14.32016059931407 AO-27 1 22825U 93061C 07326.48755230 -.00000005 00000-0 14212-4 0 08348 2 22825 098.3550 289.6461 0008815 148.6070 211.5619 14.29223056738103 IO-26 1 22826U 93061D 07326.78757261 .00000008 00000-0 19378-4 0 5323 2 22826 098.3479 290.9381 0009263 144.9083 215.2709 14.29470392738233 PO-28 1 22829U 93061G 07326.87576743 .00000061 00000-0 39403-4 0 8075 2 22829 098.3362 292.1640 0010552 119.8487 240.3762 14.30173058738498 GO-32 1 25397U 98043D 07327.75865889 -.00000251 00000-0 -93103-4 0 4585 2 25397 098.3944 007.8197 0002049 107.2943 252.8449 14.23132690486854 MO-46 1 26548U 00057D 07326.70410952 .00000149 00000-0 35878-4 0 09554 2 26548 064.5582 052.2497 0004600 351.0558 009.0423 14.83199207387047 NO-44 1 26931U 01043C 07326.77044797 -.00000262 00000-0 -70015-4 0 07405 2 26931 067.0514 098.9787 0005271 250.8062 109.2424 14.29501981320762 SO-50 1 27607U 02058C 07327.44825584 .00000183 00000-0 50392-4 0 4626 2 27607 064.5589 321.4633 0072528 321.2577 038.3330 14.71304371264557 CO-55 1 27844U 03031E 07326.58527290 .00000033 00000-0 35760-4 0 01733 2 27844 098.7184 332.7287 0010012 359.9941 000.1219 14.20543891227966 CO-57 1 27848U 03031J 07326.55582302 .00000041 00000-0 39549-4 0 01298 2 27848 098.7188 331.8448 0010007 003.2766 356.8484 14.20358793227938 AO-51 1 28375U 04025K 07326.65277761 .00000020 00000-0 18535-4 0 09656 2 28375 098.0943 357.6620 0085216 062.1026 298.8762 14.40587574178528 CO-56 1 28941U 06005C 07326.77326390 .00029691 25118-5 27008-3 0 06727 2 28941 098.1128 046.0971 0203528 068.8746 293.4123 15.46285459097886 HO-59 1 29484U 06041F 07327.85220199 .00062306 36035-5 32025-3 0 8828 2 29484 098.2651 043.2549 0161283 048.1728 313.3175 15.64817560 65926 NO-61 1 29664U 06055F 07327.46674875 .00197263 30607-4 19009-3 0 6749 2 29664 051.6314 324.3186 0002649 295.8550 064.2093 16.11211515 53636 CP4 1 31122U 07012F 07326.69829614 .00000548 00000-0 13192-3 0 1923 2 31122 098.0669 034.7192 0084786 253.3612 105.8249 14.55053589 31907 CP3 1 31128U 07012M 07326.69400688 -.00000049 00000-0 00000 0 0 1876 2 31128 098.0666 033.6217 0101993 256.1426 102.8418 14.51884702 31821 LIBERT 1 31129U 07012N 07327.78330318 .00000336 00000-0 89029-4 0 5404 2 31129 098.0665 034.6882 0101547 252.9771 106.0275 14.51977972 31966 NOAA-10 1 16969U 86073A 07326.66002543 .00000088 00000-0 54084-4 0 08999 2 16969 098.7393 343.8872 0013178 067.5656 292.6928 14.27341725101839 NOAA-11 1 19531U 88089A 07326.68210988 -.00000215 00000-0 -88612-4 0 09294 2 19531 098.8080 053.8417 0011011 302.6425 057.3714 14.14854889988563 NOAA-12 1 21263U 91032A 07326.65149474 .00000097 00000-0 59951-4 0 04362 2 21263 098.7621 323.6984 0012550 012.5814 347.5651 14.25503866858820 MET-3/5 1 21655U 91056A 07326.94869276 .00000051 00000-0 10000-3 0 03678 2 21655 082.5553 250.7633 0013211 165.2639 194.8869 13.17013646782302 MET-2/21 1 22782U 93055A 07326.81115202 .00000083 00000-0 61680-4 0 9920 2 22782 082.5455 276.0680 0023194 147.9389 212.3202 13.83621291718454 OKEAN-4 1 23317U 94066A 07326.72340983 .00000173 00000-0 18424-4 0 04321 2 23317 082.5363 148.6432 0024049 090.5350 269.8604 14.82552038707540 NOAA-14 1 23455U 94089A 07326.75573998 -.00000052 00000-0 -34466-5 0 09076 2 23455 098.9735 033.6442 0009536 017.3460 342.8053 14.13728811665040 SICH-1 1 23657U 95046A 07326.80566156 .00000155 00000-0 16573-4 0 02329 2 23657 082.5254 289.5043 0026005 082.3451 278.0729 14.81527582659512 NOAA-15 1 25338U 98030A 07326.82584470 -.00000054 00000-0 -47347-5 0 02508 2 25338 098.5415 319.1265 0009716 288.3243 071.6873 14.24672712495270 RESURS 1 25394U 98043A 07326.70974281 -.00000035 00000-0 27166-5 0 08088 2 25394 098.4190 014.7951 0002421 079.1117 281.0334 14.24148624486913 FENGYUN1 1 25730U 99025A 07326.93584752 .00000254 00000-0 17492-3 0 03231 2 25730 098.7070 304.9181 0021032 033.6332 326.6168 14.07642816439809 OKEAN-0 1 25860U 99039A 07326.59392820 .00000056 00000-0 15862-4 0 2188 2 25860 097.7385 321.5088 0000705 105.1503 254.9783 14.73486066448825 NOAA-16 1 26536U 00055A 07326.72565841 .00000203 00000-0 13491-3 0 06924 2 26536 099.1372 306.5821 0011395 088.4870 271.7612 14.12459380369487 NOAA-17 1 27453U 02032A 07326.76501848 -.00000072 00000-0 -12630-4 0 06887 2 27453 098.5637 032.1265 0011547 357.3235 002.7860 14.23925907281282 NOAA-18 1 28654U 05018A 07326.80039655 .00000080 00000-0 68536-4 0 02075 2 28654 098.8455 265.5280 0014275 176.7753 183.3496 14.11113998129227 HUBBLE 1 20580U 90037B 07327.86426195 .00000407 00000-0 18724-4 0 127 2 20580 028.4688 228.8334 0003372 352.9850 007.0690 15.00306323763966 UARS 1 21701U 91063B 07326.53372471 .00004877 00000-0 80090-4 0 02439 2 21701 056.9748 346.0680 0093979 135.8966 224.9637 15.49686790890289 PO-34 1 25520U 98064B 07326.85194842 .00000497 00000-0 14694-4 0 08762 2 25520 028.4592 126.7573 0005812 183.1583 176.8973 15.17085812501647 ISS 1 25544U 98067A 07327.72375142 .00023281 00000-0 14641-3 0 3977 2 25544 051.6427 001.3649 0001060 188.2851 278.4046 15.76604131515949 OO-38 1 26063U 00004C 07327.81752192 -.00000027 00000-0 10974-4 0 676 2 26063 100.2207 359.8958 0037291 070.7561 289.7638 14.35820403409956 UWE-1 1 28892U 05043C 07326.71218053 .00000067 00000-0 23837-4 0 09064 2 28892 098.1131 220.0435 0017425 341.1762 018.8768 14.59563168110337 CO-58 1 28895U 05043F 07326.68602267 .00000260 00000-0 64329-4 0 08815 2 28895 098.1156 220.2904 0017700 341.1376 018.9194 14.59607289110211 NCUBE2 1 28897U 05043H 07326.67447870 .00000165 00000-0 44139-4 0 04102 2 28897 098.1146 220.2231 0017129 342.4119 017.6511 14.59772741102495 FCAL 1 29667U 06055J 07327.46957547 .00034492 11721-4 93734-4 0 5244 2 29667 051.6331 335.2363 0008588 253.5064 106.5017 15.95215850 53368 FALCON 1 30776U 07006E 07325.44680196 .00000255 00000-0 21781-4 0 01954 2 30776 035.4349 339.2735 0001737 354.3186 005.7510 15.02804063038720 MAST 1 31126U 07012K 07326.67420782 -.00000016 00000-0 73694-5 0 1890 2 31126 098.0676 034.1177 0093806 254.8891 104.1920 14.53377717 31878 CAPE1 1 31130U 07012P 07326.76010786 -.00000066 00000-0 -40261-5 0 1692 2 31130 098.0677 033.6869 0102116 256.0165 102.9630 14.51903250 31621 /EX